TimePDT,TemperatureF,Dew PointF,Humidity,Sea Level PressureIn,VisibilityMPH,Wind Direction,Wind SpeedMPH,Gust SpeedMPH,PrecipitationIn,Events,Conditions,WindDirDegrees,DateUTC
12:15 AM,51.8,48.2,88,29.74,10.0,Calm,Calm,-,N/A,,Overcast,0,2012-11-01 07:15:00
12:35 AM,51.8,48.2,88,29.73,9.0,Calm,Calm,-,0.01,,Overcast,0,2012-11-01 07:35:00
12:55 AM,51.8,48.2,88,29.74,10.0,Calm,Calm,-,0.01,,Overcast,0,2012-11-01 07:55:00
1:15 AM,51.8,46.4,82,29.75,10.0,Calm,Calm,-,N/A,,Overcast,0,2012-11-01 08:15:00
1:35 AM,51.8,46.4,82,29.75,8.0,Calm,Calm,-,0.03,,Mostly Cloudy,0,2012-11-01 08:35:00
2:15 AM,51.8,46.4,82,29.75,10.0,Calm,Calm,-,N/A,,Overcast,0,2012-11-01 09:15:00
2:35 AM,50.0,46.4,87,29.76,7.0,Calm,Calm,-,0.02,,Overcast,0,2012-11-01 09:35:00
2:55 AM,51.8,46.4,82,29.76,6.0,Calm,Calm,-,0.07,,Overcast,0,2012-11-01 09:55:00
3:15 AM,51.8,46.4,82,29.75,10.0,NNE,3.5,-,0.03,,Mostly Cloudy,20,2012-11-01 10:15:00
3:35 AM,51.8,48.2,88,29.75,10.0,West,3.5,-,0.05,,Clear,260,2012-11-01 10:35:00
4:15 AM,51.8,48.2,88,29.76,9.0,Calm,Calm,-,0.07,,Mostly Cloudy,0,2012-11-01 11:15:00
4:35 AM,51.8,46.4,82,29.76,8.0,Calm,Calm,-,0.11,,Overcast,0,2012-11-01 11:35:00
4:55 AM,50.0,46.4,87,29.76,10.0,Calm,Calm,-,0.12,,Overcast,0,2012-11-01 11:55:00
5:35 AM,50.0,46.4,87,29.77,10.0,Calm,Calm,-,0.01,,Mostly Cloudy,0,2012-11-01 12:35:00
5:55 AM,50.0,46.4,87,29.78,10.0,SSE,4.6,-,0.01,,Overcast,150,2012-11-01 12:55:00
6:35 AM,51.8,46.4,82,29.78,10.0,South,5.8,-,0.02,,Overcast,170,2012-11-01 13:35:00
7:15 AM,50.0,46.4,87,29.79,10.0,South,3.5,-,0.02,,Overcast,180,2012-11-01 14:15:00
7:35 AM,50.0,46.4,87,29.80,10.0,Calm,Calm,-,0.03,,Overcast,0,2012-11-01 14:35:00
7:55 AM,51.8,46.4,82,29.80,10.0,Calm,Calm,-,0.10,,Overcast,0,2012-11-01 14:55:00
8:15 AM,51.8,46.4,82,29.81,10.0,Calm,Calm,-,0.01,,Overcast,0,2012-11-01 15:15:00
8:35 AM,51.8,46.4,82,29.82,9.0,Calm,Calm,-,0.02,,Mostly Cloudy,0,2012-11-01 15:35:00
8:55 AM,51.8,46.4,82,29.82,4.0,Calm,Calm,-,0.04,,Overcast,0,2012-11-01 15:55:00
9:15 AM,51.8,46.4,82,29.82,9.0,Calm,Calm,-,0.01,,Overcast,0,2012-11-01 16:15:00
9:35 AM,51.8,46.4,82,29.82,10.0,Calm,Calm,-,0.01,,Overcast,0,2012-11-01 16:35:00
9:55 AM,51.8,48.2,88,29.82,10.0,Calm,Calm,-,0.01,,Overcast,0,2012-11-01 16:55:00
10:15 AM,51.8,48.2,88,29.84,10.0,Calm,Calm,-,N/A,,Overcast,0,2012-11-01 17:15:00
10:35 AM,53.6,48.2,82,29.85,10.0,Calm,Calm,-,N/A,,Overcast,0,2012-11-01 17:35:00
10:55 AM,53.6,48.2,82,29.84,10.0,South,4.6,-,N/A,,Overcast,170,2012-11-01 17:55:00
11:15 AM,53.6,48.2,82,29.86,10.0,South,3.5,-,N/A,,Overcast,170,2012-11-01 18:15:00
11:35 AM,53.6,48.2,82,29.86,10.0,South,4.6,-,N/A,,Overcast,170,2012-11-01 18:35:00
11:55 AM,53.6,48.2,82,29.88,10.0,South,6.9,-,N/A,,Overcast,170,2012-11-01 18:55:00
12:15 PM,55.4,48.2,77,29.87,10.0,South,10.4,-,N/A,,Overcast,190,2012-11-01 19:15:00
12:35 PM,53.6,48.2,82,29.88,10.0,South,9.2,-,N/A,,Overcast,180,2012-11-01 19:35:00
12:55 PM,53.6,48.2,82,29.89,10.0,South,10.4,-,N/A,,Overcast,180,2012-11-01 19:55:00
1:15 PM,53.6,48.2,82,29.89,10.0,South,5.8,-,N/A,,Overcast,190,2012-11-01 20:15:00
1:35 PM,53.6,48.2,82,29.90,10.0,South,5.8,-,N/A,,Overcast,190,2012-11-01 20:35:00
1:55 PM,53.6,48.2,82,29.90,10.0,South,6.9,-,N/A,,Overcast,190,2012-11-01 20:55:00
2:15 PM,55.4,50.0,82,29.91,10.0,South,8.1,-,N/A,,Overcast,180,2012-11-01 21:15:00
2:35 PM,55.4,48.2,77,29.90,10.0,South,6.9,-,N/A,,Overcast,180,2012-11-01 21:35:00
3:15 PM,53.6,50.0,88,29.92,5.0,South,6.9,-,0.01,,Overcast,170,2012-11-01 22:15:00
3:35 PM,53.6,50.0,88,29.92,8.0,South,10.4,-,0.01,,Overcast,190,2012-11-01 22:35:00
3:55 PM,53.6,50.0,88,29.92,8.0,SSW,9.2,-,0.01,,Overcast,200,2012-11-01 22:55:00
4:15 PM,53.6,50.0,88,29.93,10.0,South,8.1,-,0.01,,Overcast,180,2012-11-01 23:15:00
4:35 PM,53.6,50.0,88,29.93,10.0,South,6.9,-,0.01,,Mostly Cloudy,170,2012-11-01 23:35:00
4:55 PM,53.6,50.0,88,29.93,10.0,South,8.1,-,0.01,,Mostly Cloudy,170,2012-11-01 23:55:00
5:15 PM,53.6,50.0,88,29.93,10.0,South,6.9,-,N/A,,Mostly Cloudy,170,2012-11-02 00:15:00
5:35 PM,53.6,48.2,82,29.93,10.0,South,6.9,-,N/A,,Mostly Cloudy,170,2012-11-02 00:35:00
5:55 PM,53.6,48.2,82,29.94,10.0,South,8.1,-,N/A,,Mostly Cloudy,170,2012-11-02 00:55:00
6:15 PM,53.6,48.2,82,29.95,10.0,South,8.1,-,N/A,,Mostly Cloudy,170,2012-11-02 01:15:00
6:35 PM,51.8,48.2,88,29.96,10.0,South,10.4,-,N/A,,Scattered Clouds,170,2012-11-02 01:35:00
6:55 PM,51.8,48.2,88,29.97,10.0,South,9.2,-,N/A,,Mostly Cloudy,180,2012-11-02 01:55:00
7:15 PM,51.8,46.4,82,29.98,10.0,South,9.2,-,N/A,,Scattered Clouds,190,2012-11-02 02:15:00
7:35 PM,51.8,46.4,82,29.99,10.0,South,10.4,-,N/A,,Partly Cloudy,190,2012-11-02 02:35:00
7:55 PM,51.8,48.2,88,29.99,10.0,South,12.7,-,N/A,,Scattered Clouds,190,2012-11-02 02:55:00
8:15 PM,51.8,46.4,82,30.00,10.0,South,8.1,-,N/A,,Mostly Cloudy,190,2012-11-02 03:15:00
8:35 PM,51.8,46.4,82,30.00,10.0,South,9.2,-,N/A,,Mostly Cloudy,190,2012-11-02 03:35:00
8:55 PM,51.8,48.2,88,30.01,10.0,South,9.2,-,N/A,,Mostly Cloudy,190,2012-11-02 03:55:00
9:15 PM,51.8,48.2,88,30.01,10.0,South,8.1,-,N/A,,Overcast,190,2012-11-02 04:15:00
9:35 PM,51.8,48.2,88,30.02,10.0,South,6.9,-,N/A,,Mostly Cloudy,190,2012-11-02 04:35:00
9:55 PM,51.8,48.2,88,30.03,10.0,South,6.9,-,N/A,,Overcast,190,2012-11-02 04:55:00
10:15 PM,51.8,48.2,88,30.03,10.0,SSW,5.8,-,N/A,,Overcast,200,2012-11-02 05:15:00
10:35 PM,51.8,48.2,88,30.04,10.0,South,8.1,-,N/A,,Overcast,180,2012-11-02 05:35:00
10:55 PM,51.8,48.2,88,30.04,10.0,South,6.9,-,N/A,,Overcast,180,2012-11-02 05:55:00
11:15 PM,51.8,48.2,88,30.04,10.0,South,6.9,-,N/A,,Overcast,180,2012-11-02 06:15:00
11:35 PM,51.8,46.4,82,30.03,10.0,South,6.9,-,N/A,,Mostly Cloudy,180,2012-11-02 06:35:00
11:55 PM,51.8,48.2,88,30.03,10.0,SSE,4.6,-,N/A,,Overcast,160,2012-11-02 06:55:00